User: anonymous   Login
Location: Unspecified
(0.0000°N, 0.0000°E)
Time: 18:53:23
(UTC+02:00)
Language:

Gbstr 26 Del rocket - Orbit

View from above orbital plane
View from above orbital plane
View from above satellite
View from above satellite

Ground track
Ground track

The orbit data is extracted from the following two-line orbital elements,

1 25876U 99041E   15181.19085253  .00000096  00000-0  58868-4 0  9994
2 25876 051.7639 268.3090 0535694 096.3922 269.8265 14.03335871813771
Epoch (UTC): 30 June 2015 04:34:49
Eccentricity: 0.0535694
inclination: 51.7639°
perigee height: 493 km
apogee height: 1271 km
right ascension of ascending node: 268.3090°
argument of perigee: 96.3922°
revolutions per day: 14.03335871
mean anomaly at epoch: 269.8265°
orbit number at epoch: 81377

The dashed part of the orbit path shows where the satellite is in the earth's shadow,  

DLR